EW0871 Weather Reports


Display with metric or nautical units.
time (UTC)temp
F
wind
direction
speed
MPH
gust
MPH
rain 1hr
in
rain 24hr
in
rain mn
in
humidity
%
barometer
mb
20260505070010 51 0 0.0 0.0 0.00 0.00 0.00 78 1018.0
20260505065008 52 0 0.0 0.0 0.00 0.00 0.00 76 1017.8
20260505064007 52 0 0.0 2.0 0.00 0.00 0.00 76 1017.9
20260505063509 52 0 0.0 2.0 0.00 0.00 0.00 78 1018.0
20260505063009 51 203 0.0 4.0 0.00 0.00 0.00 79 1018.1
20260505062508 50 207 1.0 4.0 0.00 0.00 0.00 81 1018.1
20260505062011 50 0 0.0 0.0 0.00 0.00 0.00 81 1018.1
20260505061511 50 0 0.0 0.0 0.00 0.00 0.00 81 1018.2
20260505060508 50 0 0.0 1.0 0.00 0.00 0.00 81 1018.2
20260505060012 50 0 0.0 2.0 0.00 0.00 0.00 80 1018.2
20260505055507 50 182 0.0 2.0 0.00 0.00 0.00 80 1018.2
20260505055007 50 0 0.0 0.0 0.00 0.00 0.00 79 1018.2
20260505054508 51 0 0.0 0.0 0.00 0.00 0.00 78 1018.2
20260505054008 51 0 0.0 0.0 0.00 0.00 0.00 79 1018.3
20260505053008 51 0 0.0 0.0 0.00 0.00 0.00 76 1018.1
20260505052508 52 0 0.0 0.0 0.00 0.00 0.00 76 1018.2
20260505052007 52 0 0.0 0.0 0.00 0.00 0.00 77 1018.2
20260505051507 52 0 0.0 0.0 0.00 0.00 0.00 77 1018.1
20260505051010 52 0 0.0 0.0 0.00 0.00 0.00 78 1018.2
20260505050508 51 0 0.0 0.0 0.00 0.00 0.00 78 1018.3
20260505041508 53 0 0.0 0.0 0.00 0.00 0.00 73 1018.2
20260505041007 54 0 0.0 0.0 0.00 0.00 0.00 72 1018.3
20260505035508 54 0 0.0 0.0 0.00 0.00 0.00 71 1018.4
20260505035007 54 0 0.0 0.0 0.00 0.00 0.00 70 1018.4
20260505034507 54 0 0.0 0.0 0.00 0.00 0.00 70 1018.4
20260505033007 55 0 0.0 0.0 0.00 0.00 0.00 68 1018.5
20260505032506 56 0 0.0 0.0 0.00 0.00 0.00 67 1018.5
20260505032006 56 0 0.0 0.0 0.00 0.00 0.00 66 1018.6
20260505031009 57 0 0.0 0.0 0.00 0.00 0.00 64 1018.6
20260505030509 57 0 0.0 0.0 0.00 0.00 0.00 63 1018.6
20260505030007 58 0 0.0 0.0 0.00 0.00 0.00 63 1018.6
20260505025507 58 0 0.0 0.0 0.00 0.00 0.00 62 1018.6
20260505024509 58 0 0.0 0.0 0.00 0.00 0.00 61 1018.5
20260505024006 58 0 0.0 0.0 0.00 0.00 0.00 61 1018.5
20260505023007 59 0 0.0 2.0 0.00 0.00 0.00 60 1018.4
20260505022506 59 183 0.0 3.0 0.00 0.00 0.00 60 1018.3
20260505022007 59 188 1.0 3.0 0.00 0.00 0.00 60 1018.3
20260505021007 60 175 0.0 2.0 0.00 0.00 0.00 59 1018.3
20260505020011 60 0 0.0 1.0 0.00 0.00 0.00 58 1018.2
20260505015006 60 193 1.0 2.0 0.00 0.00 0.00 57 1018.1
20260505014507 61 190 0.0 2.0 0.00 0.00 0.00 57 1018.1
20260505014007 61 0 0.0 1.0 0.00 0.00 0.00 56 1018.0
20260505013507 61 0 0.0 0.0 0.00 0.00 0.00 56 1017.9
20260505013007 62 0 0.0 2.0 0.00 0.00 0.00 55 1017.8
20260505012506 62 169 0.0 2.0 0.00 0.00 0.00 55 1017.7
20260505012007 62 0 0.0 3.0 0.00 0.00 0.00 54 1017.7
20260505011508 62 192 0.0 3.0 0.00 0.00 0.00 54 1017.6
20260505010507 63 0 0.0 3.0 0.00 0.00 0.00 54 1017.6
20260505010008 63 174 1.0 3.0 0.00 0.00 0.00 54 1017.6
20260505005508 63 0 0.0 2.0 0.00 0.00 0.00 53 1017.6
20260505004508 64 191 0.0 3.0 0.00 0.00 0.00 52 1017.3
20260505004007 64 178 0.0 3.0 0.00 0.00 0.00 52 1017.3
20260505003507 64 172 1.0 4.0 0.00 0.00 0.00 52 1017.3
20260505003006 65 173 2.0 5.0 0.00 0.00 0.00 51 1017.2
20260505002507 65 172 2.0 5.0 0.00 0.00 0.00 51 1017.1
20260505002007 66 169 1.0 4.0 0.00 0.00 0.00 51 1017.3
20260505001507 66 165 2.0 5.0 0.00 0.00 0.00 50 1017.2
20260505001007 66 163 2.0 5.0 0.00 0.00 0.00 50 1017.2
20260505000010 67 148 2.0 7.0 0.00 0.00 0.00 49 1017.1
20260504235007 67 138 1.0 6.0 0.00 0.00 0.00 48 1017.0
20260504234518 68 143 2.0 6.0 0.00 0.00 0.00 48 1016.8
20260504234007 68 144 3.0 6.0 0.00 0.00 0.00 47 1016.8
20260504233508 68 136 2.0 9.0 0.00 0.00 0.00 47 1016.8
20260504233007 68 137 4.0 9.0 0.00 0.00 0.00 46 1016.8
20260504232509 69 151 3.0 9.0 0.00 0.00 0.00 45 1016.7
20260504232007 69 149 5.0 9.0 0.00 0.00 0.00 44 1016.7
20260504231507 70 135 3.0 8.0 0.00 0.00 0.00 44 1016.7
20260504231007 70 133 3.0 8.0 0.00 0.00 0.00 43 1016.6
20260504230508 70 141 4.0 7.0 0.00 0.00 0.00 43 1016.6
20260504230008 71 151 3.0 6.0 0.00 0.00 0.00 42 1016.6
20260504225510 71 151 2.0 7.0 0.00 0.00 0.00 43 1016.6
20260504225012 72 163 2.0 9.0 0.00 0.00 0.00 41 1016.5
20260504224506 72 175 3.0 9.0 0.00 0.00 0.00 41 1016.5
20260504224007 72 166 4.0 9.0 0.00 0.00 0.00 40 1016.5
20260504223507 73 159 5.0 9.0 0.00 0.00 0.00 39 1016.6
20260504223008 73 155 3.0 9.0 0.00 0.00 0.00 39 1016.6
20260504222507 73 158 3.0 8.0 0.00 0.00 0.00 39 1016.7
20260504222008 74 171 2.0 11.0 0.00 0.00 0.00 39 1016.6
20260504221508 74 159 4.0 11.0 0.00 0.00 0.00 38 1016.7
20260504221006 74 150 4.0 7.0 0.00 0.00 0.00 37 1016.7
20260504220507 74 160 3.0 9.0 0.00 0.00 0.00 38 1016.7
20260504220009 75 157 5.0 9.0 0.00 0.00 0.00 36 1016.7
20260504215507 76 158 2.0 7.0 0.00 0.00 0.00 37 1016.7
20260504215006 76 151 3.0 7.0 0.00 0.00 0.00 36 1016.6
20260504214507 76 143 4.0 7.0 0.00 0.00 0.00 36 1016.6
20260504214007 76 153 3.0 7.0 0.00 0.00 0.00 37 1016.6
20260504213508 76 168 2.0 7.0 0.00 0.00 0.00 35 1016.7
20260504213006 77 171 2.0 7.0 0.00 0.00 0.00 34 1016.5
20260504212007 77 175 1.0 7.0 0.00 0.00 0.00 32 1016.6
20260504211507 77 202 3.0 11.0 0.00 0.00 0.00 30 1016.5
20260504211007 76 211 3.0 12.0 0.00 0.00 0.00 32 1016.5
20260504210506 77 208 5.0 12.0 0.00 0.00 0.00 30 1016.5
20260504210009 77 204 1.0 12.0 0.00 0.00 0.00 31 1016.6
20260504205507 77 202 3.0 12.0 0.00 0.00 0.00 28 1016.7
20260504205006 78 205 1.0 12.0 0.00 0.00 0.00 30 1016.5
20260504204506 78 204 2.0 12.0 0.00 0.00 0.00 30 1016.7
20260504203507 77 201 3.0 9.0 0.00 0.00 0.00 31 1016.8
20260504203006 77 205 5.0 9.0 0.00 0.00 0.00 29 1016.8
20260504202507 77 213 4.0 9.0 0.00 0.00 0.00 30 1016.7
20260504202006 77 207 1.0 7.0 0.00 0.00 0.00 31 1016.8
20260504201507 77 207 4.0 10.0 0.00 0.00 0.00 31 1016.9
20260504201007 76 210 0.0 10.0 0.00 0.00 0.00 34 1017.0
20260504200507 76 199 4.0 10.0 0.00 0.00 0.00 31 1017.0
20260504200015 76 190 3.0 10.0 0.00 0.00 0.00 31 1017.1
20260504195508 77 186 5.0 10.0 0.00 0.00 0.00 30 1017.0
20260504194507 77 188 3.0 10.0 0.00 0.00 0.00 31 1017.1
20260504194008 77 199 2.0 9.0 0.00 0.00 0.00 31 1017.1
20260504193506 78 198 3.0 6.0 0.00 0.00 0.00 28 1017.2
20260504193007 78 200 3.0 6.0 0.00 0.00 0.00 30 1017.4
20260504192006 78 0 0.0 2.0 0.00 0.00 0.00 33 1017.5
20260504191507 78 212 1.0 5.0 0.00 0.00 0.00 30 1017.5
20260504191008 77 194 1.0 5.0 0.00 0.00 0.00 31 1017.7
20260504190507 76 194 0.0 4.0 0.00 0.00 0.00 35 1017.7
20260504185508 74 198 4.0 8.0 0.00 0.00 0.00 31 1017.9
20260504185006 74 349 1.0 4.0 0.00 0.00 0.00 32 1017.9
20260504184508 75 8 2.0 4.0 0.00 0.00 0.00 30 1017.9
20260504184007 76 153 0.0 4.0 0.00 0.00 0.00 35 1018.1
20260504183507 75 230 0.0 4.0 0.00 0.00 0.00 40 1018.2
20260504182507 74 320 2.0 4.0 0.00 0.00 0.00 34 1018.3
20260504182007 74 0 0.0 4.0 0.00 0.00 0.00 34 1018.4
20260504181507 74 237 1.0 3.0 0.00 0.00 0.00 36 1018.5
20260504181009 73 0 0.0 4.0 0.00 0.00 0.00 38 1018.5
20260504180508 73 143 1.0 5.0 0.00 0.00 0.00 34 1018.6
20260504180015 73 173 2.0 6.0 0.00 0.00 0.00 34 1018.5
20260504175508 73 194 2.0 6.0 0.00 0.00 0.00 36 1018.7
20260504175007 73 196 2.0 6.0 0.00 0.00 0.00 36 1018.7
20260504174506 73 299 1.0 4.0 0.00 0.00 0.00 36 1018.7
20260504173508 73 191 1.0 5.0 0.00 0.00 0.00 36 1018.9
20260504173005 73 335 1.0 5.0 0.00 0.00 0.00 39 1019.0
20260504172506 72 333 0.0 3.0 0.00 0.00 0.00 38 1019.0
20260504172006 71 349 0.0 7.0 0.00 0.00 0.00 40 1019.2
20260504171506 71 9 1.0 7.0 0.00 0.00 0.00 37 1019.1
20260504171006 71 13 2.0 8.0 0.00 0.00 0.00 40 1019.3
20260504170507 71 6 3.0 8.0 0.00 0.00 0.00 39 1019.3
20260504151007 63 12 4.0 9.0 0.00 0.00 0.00 41 1020.8
20260504150507 63 7 5.0 10.0 0.00 0.00 0.00 42 1020.9
20260504141006 55 12 3.0 5.0 0.00 0.00 0.00 66 1021.1
20260504140507 54 22 2.0 3.0 0.00 0.00 0.00 70 1021.3
20260504130508 44 0 0.0 0.0 0.00 0.00 0.00 92 1021.2
20260504110507 35 0 0.0 0.0 0.00 0.00 0.00 94 1020.3
20260504100514 36 0 0.0 0.0 0.00 0.00 0.00 94 1020.2
20260504082006 37 0 0.0 0.0 0.00 0.00 0.00 92 1020.2
20260504081506 37 0 0.0 0.0 0.00 0.00 0.00 92 1020.1
20260504081007 37 0 0.0 0.0 0.00 0.00 0.00 92 1020.1
20260504080508 38 0 0.0 0.0 0.00 0.00 0.00 91 1019.9